(345) Tercidina
ephemeris date magn radius delta ra dec elong phase
Today16 Sep 202514.32.431 AU3.175 AU13h48m-09°47'35.7°14.0°
Opposition22 Jul 202612.32.435 AU1.444 AU19h55m-03°54'163.4°6.8°
(345) Tercidina - 2025-09-16
astro.vanbuitenen.nl


 
-1 year
-1 month
-1 day
Now
+1 day
+1 month
+1 year

The interactive orbit chart above shows the body's path through the solar system and its position at the given date. Green and blue lines are shown perpendicular to the ecliptic plane: Green if the path is above the ecliptic plane, blue if it is below. (Left-click and drag to rotate the view; Right-click and drag to move the view; Use scroll wheel to zoom in our out.)

The orbital elements of Tercidina are:

            e (Eccentricity)                : 0.0613536
            a (Semimajor axis)              : 2.3250137
            i (Inclination)                 : 9.74417
            Ω (Longitude of ascending node) : 212.57641
            ω (Argument of perihelion)      : 230.14242
            M (Mean anomaly)                : 98.25955
            Epoch                           : 2025 May 05

            L (Longitude of perihelion)     : 262.30870
            B (Latitude of perihelion)      : -7.46511
            P (Orbital period in years)     : 3.55            
        

The light curve chart below shows the estimated development of the minor planet's magnitude.


The all-sky chart below shows the path of the minor planet over the same period as the light curve. The current position is marked yellow.





The following chart shows the path of the minor planet in the next few days. The field of view is optimized for (~10x50) binoculars and finderscopes. A more printer-friendly version of the same chart can be found below.




Ephemerides:
Date       Time       RA (2000)    DEC (2000)    delta   radius  elong  phase   PA    magn
2025-09-16 00:00 UT   13 48 50.6   -09 47 30     3.175    2.431   35.7   14.0   109   14.3 
2025-09-16 11:28 UT   13 49 39.9   -09 51 11     3.178    2.431   35.5   13.9   109   14.3 
2025-09-17 00:00 UT   13 50 33.8   -09 55 13     3.182    2.431   35.2   13.8   109   14.3 
2025-09-18 00:00 UT   13 52 17.2   -10 02 54     3.190    2.432   34.7   13.6   109   14.3 
2025-09-19 00:00 UT   13 54 00.8   -10 10 35     3.197    2.432   34.2   13.4   108   14.3 
2025-09-20 00:00 UT   13 55 44.7   -10 18 14     3.205    2.433   33.6   13.2   108   14.3 
2025-09-21 00:00 UT   13 57 28.8   -10 25 53     3.212    2.433   33.1   13.0   108   14.3 
2025-09-22 00:00 UT   13 59 13.2   -10 33 30     3.219    2.433   32.6   12.8   108   14.3 
2025-09-23 00:00 UT   14 00 57.8   -10 41 06     3.226    2.434   32.0   12.6   108   14.3 
2025-09-24 00:00 UT   14 02 42.7   -10 48 41     3.233    2.434   31.5   12.4   107   14.3 
2025-09-25 00:00 UT   14 04 27.8   -10 56 15     3.239    2.435   31.0   12.2   107   14.3 
2025-09-26 00:00 UT   14 06 13.1   -11 03 46     3.246    2.435   30.4   12.0   107   14.3 
2025-09-27 00:00 UT   14 07 58.7   -11 11 17     3.253    2.436   29.9   11.8   107   14.3 
2025-09-28 00:00 UT   14 09 44.4   -11 18 46     3.259    2.436   29.4   11.6   107   14.3 
2025-09-29 00:00 UT   14 11 30.4   -11 26 13     3.265    2.436   28.8   11.4   106   14.3 
2025-09-30 00:00 UT   14 13 16.7   -11 33 38     3.272    2.437   28.3   11.2   106   14.3 
2025-10-01 00:00 UT   14 15 03.1   -11 41 01     3.278    2.437   27.8   11.0   106   14.3 
2025-10-02 00:00 UT   14 16 49.8   -11 48 23     3.284    2.438   27.3   10.8   106   14.2 
2025-10-03 00:00 UT   14 18 36.7   -11 55 42     3.290    2.438   26.7   10.6   106   14.2 
2025-10-04 00:00 UT   14 20 23.8   -12 02 60     3.296    2.438   26.2   10.4   105   14.2 


    Terminology:
            
    delta:  distance between minor planet and earth in AU
    radius: distance between minor planet and sun in AU
    magn:   magnitude (brightness) estimate    
    ra:     right ascension in hours (24h = 360deg)
    dec:    declination in degrees
    elong:  elongation in degrees (angle sun-earth-minor planet)    
    phase:  phase angle in degrees (angle sun-minor planet-earth)        
    AU:     Astronomical Unit (mean distance between earth and sun: 149597870.7 km
    

Orbital elements provided by the MPC (Minor Planet Center).
Calculations by a modified version of AAPlus, a C# implementation of the AA+ project by PJ Naughter from the algorithms presented in the book "Astronomical Algorithms" by Jean Meeus.
NGC2000 dso catalog and star labels from VizieR as provided by the Strasbourg astronomical Data Center.
Tycho2 catalog from the ESO archive.